Regional Weather Roundup
Issued by NWS Green Bay, WI

Home | Current Version | Previous Version | Text Only | Print | Product List | Glossary On
Versions: 1 2 3 4 5 6 7 8 9 10 11 12 13 14 15 16 17 18 19 20 21 22 23 24 25 26 27 28 29 30 31 32 33 34 35 36 37 38 39 40 41 42 43 44 45 46 47 48 49 50
000
ASUS43 KGRB 061211
RWRGRB

NORTH-CENTRAL AND NORTHEAST WISCONSIN REGIONAL WEATHER ROUNDUP
NATIONAL WEATHER SERVICE GREEN BAY WI
700 AM CDT FRI MAY 06 2016

WIZ005-009-010>012-018-019-061300-
NORTH CENTRAL WISCONSIN

CITY           SKY/WX    TMP DP  RH WIND       PRES   REMARKS
IRONWOOD       SUNNY     57  43  58 SW5       29.78S
MANITOWISH WTR SUNNY     48  42  81 CALM      29.84R
ARBOR VITAE    SUNNY     52  42  70 CALM      29.84S
EAGLE RIVER    SUNNY     49  39  67 CALM      29.84S
LAND O LAKES   SUNNY     48  42  79 SW3       29.85R
RHINELANDER    NOT AVBL
PHILLIPS       SUNNY     52  39  62 S3        29.85R
ANTIGO         CLOUDY    50  42  73 CALM      29.88S
TOMAHAWK       MOSUNNY   50  40  68 CALM      29.86S
MERRILL        CLOUDY    45  41  88 CALM      29.88R
$$

WIZ013-073-061300-
NORTHEAST WISCONSIN

CITY           SKY/WX    TMP DP  RH WIND       PRES   REMARKS
IRON MOUNTAIN  NOT AVBL
MARINETTE      SUNNY     52  43  71 SE7       29.89R
OCONTO         SUNNY     51  43  72 S3        29.88S
$$

WIZ017-030-035>037-045-061300-
CENTRAL WISCONSIN

CITY           SKY/WX    TMP DP  RH WIND       PRES   REMARKS
MEDFORD        MOSUNNY   52  40  64 SW6       29.87S
WAUSAU         NOT AVBL
MOSINEE        PTSUNNY   50  43  76 S5        29.89R
MARSHFIELD     NOT AVBL
WISC RAPIDS    NOT AVBL
STEVENS POINT  MOSUNNY   49  39  68 CALM      29.90R
WAUPACA        MOSUNNY   52  40  64 SW3       29.90S
SHAWANO        MOSUNNY   54  39  57 SW3       29.89R
CLINTONVILLE   MOSUNNY   54  39  58 S6        29.89S
WAUTOMA        MOSUNNY   50  40  68 CALM      29.92R
$$

WIZ038-039-048-051-061300-
FOX VALLEY

CITY           SKY/WX    TMP DP  RH WIND       PRES   REMARKS
NWS GREEN BAY  NOT AVBL
APPLETON       MOSUNNY   48  37  66 VRB6      29.89R
OSHKOSH        SUNNY     51  39  63 S10       29.90S
FOND DU LAC    CLOUDY    53  40  61 S5        29.93R
$$

WIZ022-050-052-061300-
EAST CENTRAL WISCONSIN

CITY           SKY/WX    TMP DP  RH WIND       PRES   REMARKS
EPHRAIM        FAIR      49  39  68 S5        29.88S
STURGEON BAY   SUNNY     48  39  71 S7        29.92R
MANITOWOC      SUNNY     47  44  90 CALM      29.92R
SHEBOYGAN      SUNNY     48  42  80 SW5       29.93S
$$

LMZ563-521-522-541>543-061300-
LAKESHORE

STATION/POSITION TIME  TEMP    WIND        PRES    VSBY  WAVE
                       AIR SEA DIR/SP/G                  HT/PER
                 (UTC) (F)     (DEG/KT/KT) (MB)    (MI)  (FT/S)
SHEBOYGAN LKSHOR 1200   52     200/  7/  7 1013.9S
KEWAUNEE LKSHORE 1100   47     200/  2/  4 1011.8F
ALGOMA MARINA    1115          200/  8/  8   N/A
NORTHPORT PIER   1100   45     190/  4/  7 1011.9S
N MID LAKE BUOY  1150   41 39  190/ 12/ 14 1012.6R         1/ 3
CHAMBERS ISLAND  1100   53     180/  6/ 11 1011.9S
MENOMINEE LKSHOR 1100   52     190/  6/  8 1010.5R
$$



USA.gov is the U.S. government's official web portal to all federal, state and local government web resources and services.